[[{"header":{"parameterUnit":"m.s-1","parameterCategory":1,"la1":30.2991,"la2":30.254,"lo1":-89.0895,"lo2":-89.0444,"dy":0.0017,"dx":0.0017,"nx":28,"ny":28,"refTime":"2025-04-21T03:00:00:Z","depth":0,"parameterNumber":2,"parameterNumberName":"U-component_of_WINDS"},"data":[0,0,0,0,0,0,0,0,0,0,0,0,0,0,0,0,0,0,0,0,0,0,0,0,0,0,0,0,0,0,0,0,0,0,0,0,0,0,0,0,0,0,0,0,0,0,0,0,0,0,0,0,0,0,0,0,0,0,-4.1506,-4.1508,0,-4.1654,-4.1656,-4.1658,-4.1685,-4.1684,-4.1682,-4.1681,-4.1831,-4.1836,-4.1841,0,0,0,0,0,0,0,0,0,0,0,0,0,-4.1246,-4.1251,-4.1506,-4.1508,-4.151,-4.1654,-4.1656,-4.1658,-4.1685,-4.1684,-4.1682,-4.1681,-4.183,-4.1836,-4.1842,0,0,0,0,0,0,0,0,0,0,0,0,0,-4.1373,-4.1252,-4.1506,-4.1541,-4.1545,-4.1653,-4.1656,-4.1658,-4.1685,-4.1684,-4.1682,-4.168,-4.1828,-4.1835,-4.1843,-4.1926,0,0,-4.1866,-4.187,0,0,0,0,0,0,0,0,-4.1366,-4.1383,-4.1534,-4.1538,-4.1544,-4.1649,-4.1619,-4.1748,-4.1686,-4.1632,-4.1681,-4.1679,-4.1772,-4.1784,-4.1816,-4.1933,-4.194,-4.1867,-4.1872,-4.1875,-4.1877,0,0,0,0,0,0,0,-4.1357,-4.1376,-4.1564,-4.1536,-4.1542,-4.1549,-4.1565,-4.1644,-4.171,-4.1637,-4.1639,-4.1656,-4.1775,-4.1809,-4.182,-4.1942,-4.1867,-4.1874,-4.1878,-4.1881,-4.2135,-4.2138,0,0,0,0,0,0,-4.1342,-4.1369,-4.156,-4.1569,-4.1449,-4.1555,-4.1573,-4.1617,-4.171,-4.1722,-4.1658,-4.1657,-4.1796,-4.1811,-4.1825,-4.1928,-4.1875,-4.1882,-4.1886,-4.2133,-4.2136,-4.2138,0,0,0,0,0,0,-4.1336,-4.1359,-4.1554,-4.147,-4.1495,-4.1561,-4.1611,-4.1621,-4.1655,-4.1725,-4.1737,-4.168,-4.1795,-4.1814,-4.1901,-4.1934,-4.1885,-4.1892,-4.2131,-4.2134,-4.2137,-4.2136,0,0,0,0,0,0,-4.1329,-4.1357,-4.1389,-4.147,-4.1499,-4.1627,-4.1613,-4.1625,-4.1668,-4.1669,-4.175,-4.1761,-4.1796,-4.1889,-4.1909,-4.1944,-4.1898,-4.2128,-4.2132,-4.2136,-4.2133,-4.2138,-4.2143,0,0,0,0,0,-4.1319,-4.1382,-4.139,-4.1413,-4.1541,-4.1629,-4.1646,-4.1684,-4.1671,-4.1704,-4.1749,-4.1759,-4.1928,-4.1898,-4.192,-4.1958,-4.2126,-4.2131,-4.2136,-4.2131,-4.2137,-4.2143,0,0,0,0,0,0,-4.1302,-4.1393,-4.1403,-4.1494,-4.1554,-4.1633,-4.1676,-4.169,-4.1754,-4.1752,-4.1797,-4.1815,-4.1899,-4.1937,-4.1903,-4.2044,-4.2026,-4.2036,-4.2015,-4.2022,-4.2027,-4.2014,-4.1905,0,0,0,0,0,-4.1309,-4.1373,-4.1449,-4.1522,-4.1552,-4.1609,-4.1648,-4.1673,-4.1736,-4.1761,-4.1813,-4.1874,-4.1941,-4.1984,-4.2049,-4.214,-4.2157,-4.2177,-4.2182,-4.2185,-4.2192,-4.2243,-4.2252,-4.2154,-4.2154,-4.2154,0,0,-4.1323,-4.1381,-4.1419,-4.152,-4.1569,-4.1634,-4.163,-4.1698,-4.1747,-4.1772,-4.1857,-4.1897,-4.1968,-4.2057,-4.2099,-4.2092,-4.2224,-4.2192,-4.2194,-4.2199,-4.2249,-4.2258,-4.2266,-4.2157,-4.2157,-4.2156,0,0,-4.1382,-4.1433,-4.1499,-4.1549,-4.1623,-4.1661,-4.1677,-4.1756,-4.1784,-4.187,-4.189,-4.1949,-4.2063,-4.2113,-4.2153,-4.2233,-4.2244,-4.2254,-4.2279,-4.2328,-4.2335,-4.2342,-4.237,-4.2379,-4.2261,-4.2261,-4.2261,0,-4.139,-4.1489,-4.1531,-4.16,-4.1643,-4.1671,-4.1738,-4.1784,-4.1876,-4.1905,-4.1897,-4.2042,-4.2091,-4.2192,-4.2212,-4.2244,-4.2263,-4.2243,-4.2331,-4.2338,-4.2346,-4.2372,-4.2383,-4.2261,-4.2261,-4.2261,-4.2261,0,-4.1495,-4.1564,-4.1608,-4.1697,-4.1747,-4.1814,-4.1866,-4.1911,-4.1932,-4.1971,-4.2059,-4.212,-4.2198,-4.2225,-4.2246,-4.2329,-4.2322,-4.2322,-4.2305,-4.2355,-4.2381,-4.2391,-4.2262,-4.2262,-4.2262,-4.2262,0,0,-4.1544,-4.1657,-4.1673,-4.1713,-4.1799,-4.1853,-4.1922,-4.1999,-4.2037,-4.21,-4.2159,-4.2256,-4.2257,-4.2302,-4.233,-4.2373,-4.2432,-4.2368,-4.237,-4.2376,-4.2526,-4.2524,-4.2535,-4.2441,-4.2443,-4.2445,-4.252,0,-4.1613,-4.1736,-4.1777,-4.188,-4.1944,-4.1972,-4.2032,-4.2091,-4.213,-4.2189,-4.2233,-4.23,-4.2297,-4.2324,-4.2369,-4.2415,-4.2462,-4.2411,-4.2494,-4.2497,-4.2473,-4.2549,-4.2547,-4.2615,-4.253,-4.2532,-4.2533,0,-4.1708,-4.1773,-4.1882,-4.1961,-4.1989,-4.2042,-4.2117,-4.2174,-4.2242,-4.2267,-4.2319,-4.2344,-4.2417,-4.2398,-4.2499,-4.2463,-4.2501,-4.2529,-4.2533,-4.254,-4.2516,-4.2557,-4.2638,-4.2647,-4.255,-4.2549,-4.2547,0,-4.1731,-4.1847,-4.1927,-4.1961,-4.2055,-4.2092,-4.2132,-4.2199,-4.2243,-4.2309,-4.2338,-4.2411,-4.245,-4.2507,-4.255,-4.2532,-4.2648,-4.2632,-4.267,-4.2669,-4.2691,-4.2688,-4.2777,-4.2718,-4.2718,-4.2718,-4.2718,0,-4.1801,-4.1867,-4.1939,-4.1988,-4.2062,-4.2109,-4.2182,-4.2224,-4.2283,-4.2341,-4.237,-4.2424,-4.2479,-4.2541,-4.2576,-4.2654,-4.2672,-4.2694,-4.2702,-4.269,-4.2687,-4.2713,-4.2709,-4.2721,-4.272,-4.2719,-4.2719,0,-4.1839,-4.189,-4.1979,-4.2061,-4.2083,-4.2134,-4.2204,-4.2253,-4.2294,-4.2367,-4.2387,-4.2451,-4.2525,-4.2575,-4.2669,-4.2693,-4.2777,-4.2786,-4.2754,-4.2758,-4.2792,-4.2787,-4.2899,-4.2915,-4.2847,-4.2848,-4.2848,0,-4.1879,-4.193,-4.2018,-4.2059,-4.21,-4.2166,-4.2212,-4.226,-4.2307,-4.2389,-4.2428,-4.2504,-4.2566,-4.2683,-4.2738,-4.281,-4.2819,-4.2853,-4.283,-4.2817,-4.2818,-4.2813,-4.2818,-4.2856,-4.2856,-4.2857,-4.2857,0,-4.1945,-4.1968,-4.2033,-4.2107,-4.2161,-4.2221,-4.2282,-4.2314,-4.2373,-4.2424,-4.25,-4.2549,-4.2646,-4.272,-4.2798,-4.284,-4.2859,-4.2865,-4.2877,-4.2864,-4.2843,-4.2854,-4.2762,-4.2861,-4.2861,-4.286,-4.286,-4.286,-4.1984,-4.2031,-4.21,-4.2172,-4.2223,-4.2279,-4.2329,-4.2377,-4.2441,-4.2524,-4.2549,-4.2628,-4.2696,-4.2803,-4.2846,-4.2908,-4.2905,-4.2923,-4.2928,-4.2931,-4.293,-4.2835,-4.2923,-4.2923,-4.2923,-4.2923,-4.2923,0,-4.2051,-4.2097,-4.2162,-4.2247,-4.2303,-4.2317,-4.2385,-4.2431,-4.25,-4.2562,-4.2624,-4.2711,-4.2784,-4.2846,-4.2921,-4.2959,-4.297,-4.2977,-4.2974,-4.2983,-4.2929,-4.291,-4.2968,-4.2968,-4.2968,-4.2968,-4.2968,-4.2968,-4.2092,-4.2171,-4.2203,-4.2308,-4.2354,-4.2432,-4.247,-4.2522,-4.2572,-4.2668,-4.2729,-4.2769,-4.2831,-4.2912,-4.2979,-4.2996,-4.3021,-4.3027,-4.3045,-4.2992,-4.2987,-4.2982,-4.2964,-4.3033,-4.3033,-4.3094,-4.3094,-4.3095]},{"header":{"parameterUnit":"m.s-1","parameterCategory":1,"la1":30.2991,"la2":30.254,"lo1":-89.0895,"lo2":-89.0444,"dy":0.0017,"dx":0.0017,"nx":28,"ny":28,"refTime":"2025-04-21T03:00:00:Z","depth":0,"parameterNumber":3,"parameterNumberName":"V-component_of_WINDS"},"data":[0,0,0,0,0,0,0,0,0,0,0,0,0,0,0,0,0,0,0,0,0,0,0,0,0,0,0,0,0,0,0,0,0,0,0,0,0,0,0,0,0,0,0,0,0,0,0,0,0,0,0,0,0,0,0,0,0,0,3.9756,3.9756,0,3.9838,3.9838,3.9839,3.984,3.9839,3.9838,3.9837,3.9916,3.992,3.9923,0,0,0,0,0,0,0,0,0,0,0,0,0,3.9597,3.96,3.9755,3.9757,3.9758,3.9837,3.9838,3.984,3.984,3.9839,3.9837,3.9836,3.9915,3.9919,3.9923,0,0,0,0,0,0,0,0,0,0,0,0,0,3.9671,3.9601,3.9755,3.9767,3.9769,3.9837,3.9839,3.984,3.984,3.9838,3.9837,3.9835,3.9914,3.9919,3.9923,3.9983,0,0,3.9938,3.994,0,0,0,0,0,0,0,0,3.9667,3.9677,3.9765,3.9767,3.9769,3.9827,3.9812,3.9888,3.984,3.9813,3.9837,3.9835,3.9888,3.9894,3.9913,3.9987,3.9991,3.9938,3.9941,3.9943,3.9944,0,0,0,0,0,0,0,3.9661,3.9673,3.9788,3.9766,3.9769,3.9768,3.9777,3.9826,3.9858,3.9815,3.9816,3.9825,3.9888,3.9909,3.9915,3.9992,3.9938,3.9942,3.9945,3.9947,4.0121,4.0123,0,0,0,0,0,0,3.9654,3.9669,3.9785,3.979,3.9713,3.9772,3.9782,3.981,3.9858,3.9863,3.9827,3.9825,3.9901,3.991,3.9918,3.9992,3.9943,3.9947,3.995,4.0119,4.0121,4.0123,0,0,0,0,0,0,3.9651,3.9665,3.9782,3.973,3.9745,3.9777,3.9808,3.9812,3.9832,3.9866,3.9871,3.9842,3.9901,3.9911,3.9968,3.9995,3.9949,3.9953,4.0117,4.012,4.0122,4.0141,0,0,0,0,0,0,3.9646,3.9663,3.9687,3.973,3.9747,3.9831,3.9809,3.9815,3.9841,3.984,3.9882,3.9887,3.99,3.9961,3.9972,4.0001,3.9957,4.0115,4.0118,4.0121,4.0138,4.0144,4.0149,0,0,0,0,0,3.9641,3.9688,3.9688,3.9702,3.9778,3.9833,3.9842,3.9858,3.9843,3.9867,3.9889,3.9886,3.999,3.9967,3.998,4.001,4.0113,4.0117,4.0121,4.0136,4.0143,4.0149,0,0,0,0,0,0,3.9645,3.9694,3.9695,3.9757,3.9791,3.9833,3.9863,3.9865,3.9902,3.9899,3.9916,3.9925,3.9982,4.0001,3.9974,4.0071,4.005,4.0057,4.0056,4.0063,4.0069,4.0063,3.9961,0,0,0,0,0,3.9654,3.9695,3.9735,3.9786,3.9804,3.9831,3.9855,3.9864,3.9899,3.9913,3.9939,3.9973,4.0013,4.0039,4.0078,4.0141,4.0151,4.0168,4.0174,4.0178,4.0184,4.022,4.0228,4.0137,4.0137,4.0137,0,0,3.9671,3.9703,3.9728,3.9788,3.9816,3.9858,3.9842,3.9887,3.9919,3.992,3.9975,3.9996,4.0034,4.0094,4.0122,4.0112,4.0212,4.0184,4.0187,4.019,4.0225,4.0233,4.0241,4.014,4.0139,4.0139,0,0,3.9724,3.9753,3.9799,3.9828,3.987,3.9888,3.9899,3.9941,3.9956,4.0012,4.0014,4.0051,4.0121,4.0148,4.0171,4.0238,4.0237,4.025,4.0279,4.0314,4.0321,4.0327,4.0351,4.036,4.0256,4.0256,4.0256,0,3.974,3.9805,3.9822,3.9869,3.9895,3.99,3.9948,3.9974,4.0026,4.0044,4.0033,4.0122,4.0147,4.0215,4.0232,4.025,4.0263,4.0245,4.0319,4.0325,4.0331,4.0355,4.0364,4.0257,4.0257,4.0257,4.0257,0,3.9823,3.9868,3.99,3.9953,3.9984,4.003,4.0054,4.0083,4.009,4.0109,4.0167,4.0199,4.0245,4.0262,4.0268,4.0331,4.0323,4.0315,4.0294,4.0341,4.0364,4.0373,4.0259,4.0259,4.0258,4.0258,0,0,3.9879,3.9943,3.9955,3.998,4.0028,4.0062,4.0109,4.0156,4.0181,4.0217,4.0257,4.0317,4.031,4.0336,4.0346,4.0377,4.0429,4.0365,4.0366,4.0376,4.05,4.0506,4.0516,4.0428,4.043,4.0432,4.0497,0,3.9938,4.0023,4.0041,4.0114,4.0156,4.0163,4.0203,4.0237,4.0257,4.0295,4.0316,4.0358,4.0346,4.0362,4.0393,4.0416,4.0454,4.0411,4.0465,4.0467,4.0455,4.0528,4.0534,4.0594,4.0506,4.0507,4.0508,0,4.0018,4.0059,4.0136,4.0181,4.0199,4.0235,4.0281,4.0318,4.0356,4.0368,4.0399,4.0406,4.0455,4.0432,4.0499,4.047,4.0494,4.0508,4.0511,4.0516,4.049,4.0535,4.0613,4.0622,4.0522,4.0521,4.052,0,4.0052,4.0126,4.0183,4.0204,4.0256,4.0282,4.0305,4.0343,4.037,4.041,4.0428,4.0472,4.0496,4.053,4.0548,4.053,4.0615,4.0593,4.0626,4.0625,4.0643,4.0641,4.0726,4.0658,4.0658,4.0658,4.0657,0,4.0116,4.0163,4.0199,4.0234,4.0287,4.0308,4.036,4.0382,4.0416,4.0455,4.0462,4.0498,4.0521,4.0561,4.0576,4.063,4.064,4.0651,4.0654,4.065,4.0649,4.0665,4.0662,4.066,4.0659,4.0659,4.0659,0,4.0163,4.0189,4.0251,4.0297,4.031,4.0347,4.0386,4.042,4.044,4.049,4.0502,4.0534,4.0581,4.0603,4.0661,4.0671,4.0732,4.0733,4.072,4.0721,4.0753,4.0749,4.0851,4.0865,4.0787,4.0788,4.0788,0,4.0202,4.0239,4.029,4.0317,4.0342,4.0385,4.0414,4.0436,4.0466,4.0514,4.0542,4.059,4.0629,4.0704,4.0731,4.0775,4.0777,4.081,4.0784,4.0779,4.0778,4.0776,4.078,4.0814,4.0815,4.0815,4.0816,0,4.0269,4.028,4.0323,4.037,4.0405,4.0443,4.048,4.0502,4.053,4.0563,4.0612,4.0642,4.0703,4.075,4.0797,4.0819,4.0823,4.0824,4.0834,4.083,4.0821,4.0827,4.0733,4.0821,4.0821,4.082,4.082,4.082,4.0313,4.0347,4.0389,4.0436,4.0467,4.0502,4.0536,4.0562,4.0604,4.0656,4.0666,4.0718,4.0757,4.082,4.0845,4.0886,4.0878,4.0892,4.0896,4.0899,4.0901,4.0815,4.0894,4.0894,4.0894,4.0894,4.0894,0,4.0381,4.0409,4.0452,4.0505,4.0542,4.0544,4.0586,4.0616,4.0663,4.0699,4.0739,4.0796,4.0842,4.0874,4.0921,4.0948,4.095,4.0959,4.0957,4.0963,4.0905,4.0892,4.0956,4.0956,4.0956,4.0956,4.0956,4.0956,4.042,4.0478,4.0495,4.0568,4.0595,4.0647,4.0671,4.0704,4.0733,4.0797,4.0836,4.0858,4.0893,4.0943,4.0985,4.0994,4.1011,4.102,4.1028,4.0973,4.0967,4.096,4.0948,4.1023,4.1023,4.1082,4.1083,4.1083]}]]